Terminal Aerodrome Forecast
Issued by NWS

Home | Current Version | Previous Version | Text Only | Print | Product List | Glossary On
Versions: 1 2 3 4 5 6 7 8 9 10 11 12 13 14 15 16 17 18 19 20 21
000
FTAK31 PAFA 290520
TAFASC
TAF
PASC 290520Z 2906/3006 09021KT P6SM SKC
     FM290900 08015KT 6SM BR BKN005 OVC015
     FM291200 08015KT 1/2SM FG BKN005 OVC015
     FM291700 07009KT 1 1/2SM BR SCT250
     FM291900 06009KT P6SM SKC=

USA.gov is the U.S. government's official web portal to all federal, state and local government web resources and services.